Regional Weather Roundup
Issued by NWS

Home | Current Version | Previous Version | Text Only | Print | Product List | Glossary Off
Versions: 1 2 3 4 5 6 7 8 9 10 11 12 13 14 15 16 17 18 19 20 21 22 23 24 25 26 27 28 29 30 31 32 33 34 35 36 37 38 39 40 41 42 43 44 45 46 47 48 49 50

000
ASUS43 KOAX 040010
RWRNE

WEATHER ROUNDUP FOR NEBRASKA
NATIONAL WEATHER SERVICE OMAHA NE
700 PM CDT TUE MAY 03 2016

NOTES: SATELLITE DATA IS BEING USED TO AUGMENT CLOUD COVER ABOVE
       12000 FEET.
       "FAIR" INDICATES FEW OR NO CLOUDS BELOW 12,000 FEET WITH NO
       SIGNIFICANT WEATHER AND/OR OBSTRUCTIONS TO VISIBILITY.

  * THESE STATIONS DO NOT REPORT WEATHER SUCH AS RAIN...SNOW OR FOG.

NEZ001>004-019>022-054>056-040100-
NEBRASKA PANHANDLE

CITY           SKY/WX    TMP DP  RH WIND       PRES   REMARKS
SCOTTSBLUFF    SUNNY     73  35  25 N13       30.10S
6HR MIN TEMP:  68; 6HR MAX TEMP:  74;

ALLIANCE       SUNNY     68  37  32 N14       30.09S
6HR MIN TEMP:  64; 6HR MAX TEMP:  70;

CHADRON        SUNNY     72  39  30 N9        30.08S
6HR MIN TEMP:  68; 6HR MAX TEMP:  74;

KIMBALL        PTSUNNY   67  36  31 N15       30.15F
SIDNEY         SUNNY     68  26  20 N14       30.13S
6HR MIN TEMP:  62; 6HR MAX TEMP:  70;

$$

NEZ057>060-069>072-079>082-040100-
SOUTHWEST NEBRASKA

CITY           SKY/WX    TMP DP  RH WIND       PRES   REMARKS
NORTH PLATTE   SUNNY     69  34  27 NW15      30.03S
6HR MIN TEMP:  60; 6HR MAX TEMP:  70;

IMPERIAL       SUNNY     69  35  28 N13       30.07S
6HR MIN TEMP:  59; 6HR MAX TEMP:  69;

LEXINGTON      SUNNY     67  42  39 NW13      30.02S
MCCOOK         SUNNY     68  40  35 N12       30.04S
6HR MIN TEMP:  59; 6HR MAX TEMP:  69;

OGALLALA       SUNNY     68  30  24 N10       30.07S
$$

NEZ005>010-023>029-035>040-094-040100-
NORTH CENTRAL NEBRASKA

CITY           SKY/WX    TMP DP  RH WIND       PRES   REMARKS
VALENTINE      SUNNY     71  37  28 N16       30.01S
6HR MIN TEMP:  64; 6HR MAX TEMP:  72;

AINSWORTH      SUNNY     68  37  32 N17       30.01S
BROKEN BOW     LGT RAIN  69  39  33 N15       30.00S
6HR MIN TEMP:  61; 6HR MAX TEMP:  70; 6HR PCP: TRACE;

O`NEILL        SUNNY     69  38  31 NW18      29.96F
ORD            SUNNY     68  40  35 NW14      29.96F
6HR MIN TEMP:  63; 6HR MAX TEMP:  70;

THEDFORD       SUNNY     70  35  27 N12       30.03F
$$

NEZ041-046>049-061>064-073>077-083>087-040100-
SOUTH CENTRAL NEBRASKA

CITY           SKY/WX    TMP DP  RH WIND       PRES   REMARKS
GRAND ISLAND   SUNNY     68  41  37 W13       29.98F
6HR MIN TEMP:  63; 6HR MAX TEMP:  70;

AURORA         SUNNY     69  38  33 NW14      29.98S
HASTINGS       SUNNY     68  41  37 NW14      29.99F
6HR MIN TEMP:  63; 6HR MAX TEMP:  69;

HEBRON         SUNNY     69  40  34 NW9       29.98S
HOLDREGE       SUNNY     67  38  34 NW9G16    30.02S
KEARNEY *      SUNNY     68  39  34 NW13      30.01F
YORK           SUNNY     68  41  37 W14G21    29.97S
$$

NEZ011>018-030>034-042>045-040100-
NORTHEAST NEBRASKA

CITY           SKY/WX    TMP DP  RH WIND       PRES   REMARKS
NORFOLK        SUNNY     69  41  36 NW20      29.91F
6HR MIN TEMP:  65; 6HR MAX TEMP:  70;

ALBION         SUNNY     67  41  38 NW17      29.95F
BLAIR          SUNNY     70  41  35 W13G24    29.91S
COLUMBUS *     SUNNY     70  39  32 NW13      29.94S
FREMONT        SUNNY     68  46  45 W12       29.92F
TEKAMAH        MOSUNNY   69  43  38 NW15      29.89F
6HR MIN TEMP:  65; 6HR MAX TEMP:  71;

WAYNE          SUNNY     68  43  39 NW17G25   29.91F
$$

NEZ050>053-065>068-078-088>093-040100-
SOUTHEAST NEBRASKA

CITY           SKY/WX    TMP DP  RH WIND       PRES   REMARKS
LINCOLN        SUNNY     71  40  32 W10       29.94F
6HR MIN TEMP:  65; 6HR MAX TEMP:  72;

OMAHA EPPLEY   PTSUNNY   71  42  35 W13       29.89F
6HR MIN TEMP:  66; 6HR MAX TEMP:  73;

BEATRICE       MOSUNNY   68  41  37 NW14      29.96F
FALLS CITY     MOSUNNY   68  42  38 W12       29.93F
6HR MIN TEMP:  64; 6HR MAX TEMP:  70;

NEBRASKA CITY  SUNNY     67  39  36 NW10G18   29.93F
PLATTSMOUTH    MOSUNNY   71  41  34 W13       29.92F
$$

NEZ044-045-051>053-067-040100-
OMAHA AREA

CITY           SKY/WX    TMP DP  RH WIND       PRES   REMARKS
OMAHA EPPLEY   PTSUNNY   71  42  35 W13       29.89F
6HR MIN TEMP:  66; 6HR MAX TEMP:  73;

BLAIR          SUNNY     70  41  35 W13G24    29.91S
FREMONT        SUNNY     68  46  45 W12       29.92F
MILLARD        MOSUNNY   70  43  37 W12G17    29.91S
OFFUTT AFB     SUNNY     69  42  38 W10       29.90F
PLATTSMOUTH    MOSUNNY   71  41  34 W13       29.92F
WAHOO          MOCLDY    70  41  35 W17G23    29.92F
$$




USA.gov is the U.S. government's official web portal to all federal, state and local government web resources and services.